Weather in Krasnaya Sloboda

Russia / Republic of Tatarstan     54°57′27″N   49°15′34″E
temp.,
°C
wind,
m/s
gust,
m/s
humid.,
%
clouds,
%
prec.,
mm/h
press.,
hPa
HPBL,
m
23 october, sat
sat2300:00+10wsw813800 0.0 1004374
03:00+9sw713830 0.0 1005383
06:00+8sw713870 0.1 1006438
09:00+9sw712783 0.1 1008635
12:00+11wsw811595 0.0 1009995
15:00+11wsw812555 0.0 1009743
18:00+9sw5106158 0.0 1011201
21:00+8ssw4106932 0.0 1011185
24 october, sun
sun2400:00+7ssw4869100 0.0 1010175
03:00+7sw597592 0.0 1009369
06:00+6w58795 0.0 1009287
09:00+7w59725 0.0 1010528
12:00+8w79637 0.0 10111097
15:00+8w786082 0.1 10121358
18:00+6w6870100 0.1 1013857
21:00+7sw5659100 0.1 1013848
25 october, mon
mon2500:00+6sw4664100 0.0 1013413
03:00+5wsw347287 0.1 1013274
06:00+4wsw3386100 0.1 1014565
09:00+3nw3495100 1.9 1015561
12:00+3nnw8989100 1.0 1017772
15:00+3n9106698 1.1 10191259
18:00+3n911620 0.0 1023749
21:00+1n710672 0.0 1024570
26 october, tue
tue2600:00+1nnw57714 0.0 1026289
03:000nw457080 0.0 1027200
06:000w34685 0.0 1027201
09:00+2wsw685843 0.0 1027452
12:00+4sw8104676 0.0 1025769
15:00+5sw8115183 0.0 1023822
18:00+4wsw8126054 0.0 1022564
21:00+3wsw7106670 0.0 1022437
27 october, wed
wed2700:00+2wsw697199 0.0 1022348
03:00+2wsw697285 0.0 1021336
06:00+2wsw6973100 0.0 1020336
09:00+3wsw6967100 0.0 1020432
12:00+5wsw71057100 0.0 1019641
15:00+6sw71255100 0.0 1017720
18:00+6sw71357100 0.0 1017621
21:00+6wsw81354100 0.0 1016649